Skip Page Navigation
NASA JPL Caltech
NASA Logo - Jet Propulsion Laboratory + View the NASA Portal
+ Center for Near-Earth Object Studies
JPL Home Earth Solar System Stars & Galaxies Technology
JPL Solar System Dynamics
BODIES ORBITS EPHEMERIDES TOOLS PHYSICAL DATA DISCOVERY FAQ SITE MAP
JPL Small-Body Database Browser
Search: [ help ]  
(2016 GN134)
Classification: Apollo [NEO]          SPK-ID: 3750663
Ephemeris | Orbit Diagram | Orbital Elements | Mission Design | Physical Parameters | Close-Approach Data ]

[ show orbit diagram ]
Orbital Elements at Epoch 2459000.5 (2020-May-31.0) TDB
Reference: JPL 4 (heliocentric ecliptic J2000)
 Element Value Uncertainty (1-sigma)   Units 
e .5269103034124509 0.0001423  
a 1.643034183578181 0.00040695 au
q .777302543391973 4.1357e-05 au
i 3.811163186458123 0.00092207 deg
node 194.7024420119727 0.00017654 deg
peri 291.0365639681139 0.00046328 deg
M 11.92367839631428 0.275 deg
tp 2458975.021369618886
(2020-May-05.52136962)
0.57815 TDB
period 769.2514534806877
2.11
0.28579
0.0007825
d
yr
n .4679874160407262 0.00017387 deg/d
Q 2.508765823764389 0.00062137 au
  Orbit Determination Parameters
   # obs. used (total)      16  
   data-arc span      2 days  
   first obs. used      2016-04-05  
   last obs. used      2016-04-07  
   planetary ephem.      DE431  
   SB-pert. ephem.      SB431-N16  
   condition code      6  
   norm. resid. RMS      .63859  
   source      ORB  
   producer      Otto Matic  
   solution date      2017-Apr-06 08:26:43  

Additional Information
 Earth MOID = .000375534 au 
 Jupiter MOID = 2.59 au 
 T_jup = 4.120 
[ show covariance matrix ]

Ephemeris | Orbit Diagram | Orbital Elements | Mission Design | Physical Parameters | Close-Approach Data ]

Physical Parameter Table
Parameter Symbol Value Units Sigma Reference Notes
absolute magnitude H 30.2   n/a MPO374804  

[ hide close-approach data ]
Close-Approach Data   ...sorted by Date/Time (TDB)
Date/Time (TDB) Time Uncertainty
(days_HH:MM)
Body Nominal Distance (au) Minimum Distance (au) Maximum Distance (au) V-relative (km/s) V-infinity (km/s) JD (TDB) Time Uncertainty (minutes) Semi-major axis (km) Semi-minor axis (km) range-LOV angle (deg) N-sigma BP Orbit Ref. Reference Modified
1989-Oct-26 19:20 8_19:47 Earth 0.228941516359423 0.0523045465980564 0.419335013912486 20.031506774369 20.0309257685503 2447826.305383053 12706.6094015809 9575624.92480282 102.501054881281 10.1445074760109 62972.7633972372 T 4 CATAB v2.0e-lin.ifort 2017-Nov-30 12:33:51 2018-Dec-11 16:58
2001-Apr-21 10:15 4_18:46 Earth 0.278367447775048 0.170826721180577 0.385920536411856 21.5487818139315 21.5483376168902 2452020.927378614 6886.36214796197 5363727.20319872 12.4508737999354 -0.966056263889012 59130.1702781188 T 4 CATAB v2.0e-lin.ifort 2017-Nov-30 12:33:51 2018-Dec-11 16:58
2016-Apr-04 09:38 < 00:01 Moon 0.00220370733959973 0.00220329415838698 0.00220412057512367 14.3415777851802 14.3405407735618 2457482.901265613 0.63723377038465 27.2564596675191 5.26618684251778 41.8693076112283 50162.8987788427 T 4 CATAB v2.0e-lin.ifort 2017-Nov-30 12:33:51 2018-Dec-11 16:58
2016-Apr-04 13:52 < 00:01 Earth 0.000382417677745573 0.000382089092486254 0.000382746237836611 13.9034036178939 13.3928979299412 2457483.078007010 0.58902532474403 15.6146389206827 1.14663161988501 -2.09721805121213 2497.34468645196 T 4 CATAB v2.0e-lin.ifort 2017-Nov-30 12:33:51 2018-Dec-11 16:58
2026-May-28 21:06 2_16:56 Mars 0.0966739127518488 0.0373244305849478 0.158066209494217 17.3460642034516 17.3458934780755 2461189.379471921 3896.01205928328 3091357.90131281 173.50836076182 -10.2259239320434 14616.7108145128 T 4 CATAB v2.0e-lin.ifort 2017-Nov-30 12:33:51 2018-Dec-11 16:58
2032-Nov-08 11:15 5_22:01 Earth 0.177859459683399 0.0721408505678974 0.289867106025777 18.5301149177471 18.5293064424591 2463544.968803628 8521.17178616557 5681141.98327426 43.2775316140613 13.4899831803357 145201.502305991 T 4 CATAB v2.0e-lin.ifort 2017-Nov-30 12:33:51 2018-Dec-11 16:58
2037-Apr-28 20:52 5_01:30 Earth 0.397589602180748 0.271961130640237 0.523221501584074 25.1048173370743 25.1045503915881 2465177.369449739 7289.49449814987 6264939.89278446 11.7015745103322 -0.566392385294581 47227.2011439309 T 4 CATAB v2.0e-lin.ifort 2017-Nov-30 12:33:51 2018-Dec-11 16:58
2051-Oct-25 20:31 5_08:43 Earth 0.456813102662998 0.311233119454915 0.602532693221438 26.9634805546505 26.9632642331958 2470470.355121134 7723.44813459625 7273875.89912294 51.8893629352209 2.98360714456311 65135.7104098708 T 4 CATAB v2.0e-lin.ifort 2017-Nov-30 12:33:51 2018-Dec-11 16:58
2056-Apr-14 01:50 9_20:41 Earth 0.127450127488144 0.00258807461256166 0.29533224381958 17.1786761436753 17.1774591235103 2472102.576500159 14201.0398052772 8372245.71446047 4.01696376351289 -1.16927791907379 101524.316725911 T 4 CATAB v2.0e-lin.ifort 2017-Nov-30 12:33:51 2018-Dec-11 16:58
2079-Jan-28 01:36 8_16:00 Mars 0.0605895125066789 0.0158783414437128 0.291623414524755 16.7022658788946 16.7019829762458 2480426.566707400 12480.2804095131 11604785.9351509 145.105228418001 -15.1962058950636 16195.5944320476 T 4 CATAB v2.0e-lin.ifort 2017-Nov-30 12:33:51 2018-Dec-11 16:58
2091-Nov-03 02:40 3_14:28 Earth 0.299209837911199 0.234008845237762 0.364716793106018 22.2374889222757 22.2370884664154 2485088.611175283 5188.10363091691 3293688.47599335 93.242907070632 8.13350805264022 65685.1034134235 T 4 CATAB v2.0e-lin.ifort 2017-Nov-30 12:33:51 2018-Dec-11 16:58
2096-Apr-22 07:58 8_15:32 Earth 0.268043918897501 0.0891066178602222 0.447032076005794 21.2864711443247 21.2860041544208 2486720.831790221 12452.2146914253 8926046.76365307 12.0529583057752 -0.937220323713591 52222.2449976205 T 4 CATAB v2.0e-lin.ifort 2017-Nov-30 12:33:51 2018-Dec-11 16:58
2131-Nov-02 01:51 2_00:38 Earth 0.347449351433327 0.308738888361683 0.386237161752061 23.6329876272583 23.6326631343534 2499696.577105822 2918.12514881858 1949479.40452165 100.191181024857 7.57753019472502 65627.7131368679 T 4 CATAB v2.0e-lin.ifort 2017-Nov-30 12:33:51 2018-Dec-11 16:58
Ephemeris | Orbit Diagram | Orbital Elements | Mission Design | Physical Parameters | Close-Approach Data ]
ABOUT SSD CREDITS/AWARDS PRIVACY/COPYRIGHT GLOSSARY LINKS
FirstGov 2020-Oct-31 10:38 UT
(server date/time)  
NASA Home Page
Site Manager:   Ryan S. Park
Webmaster  Alan B. Chamberlin